Time,TemperatureF,DewpointF,PressureIn,WindDirection,WindDirectionDegrees,WindSpeedMPH,WindSpeedGustMPH,Humidity,HourlyPrecipIn,Conditions,Clouds,dailyrainin,SoftwareType,DateUTC
2013-10-18 00:00:00,66.9,54.9,31.03,South,182,11.0,18.0,65,0.00,,,0.00,meteohub,2013-10-18 04:00:00,
2013-10-18 00:01:00,66.9,54.9,31.03,South,173,11.0,18.0,65,0.00,,,0.00,meteohub,2013-10-18 04:01:00,
2013-10-18 00:02:00,66.9,54.9,31.03,SSW,202,11.0,18.0,65,0.00,,,0.00,meteohub,2013-10-18 04:02:00,
2013-10-18 00:03:00,66.9,55.2,31.03,SSE,162,10.0,18.0,66,0.00,,,0.00,meteohub,2013-10-18 04:03:00,
2013-10-18 00:04:00,66.9,54.9,31.03,South,175,9.0,18.0,65,0.00,,,0.00,meteohub,2013-10-18 04:04:00,
2013-10-18 00:06:00,66.9,55.2,31.03,South,184,10.0,15.0,66,0.00,,,0.00,meteohub,2013-10-18 04:06:00,
2013-10-18 00:12:00,66.7,54.7,31.03,South,175,8.0,15.0,65,0.00,,,0.00,meteohub,2013-10-18 04:12:00,
2013-10-18 00:17:00,66.7,54.7,31.03,South,186,9.0,15.0,65,0.00,,,0.00,meteohub,2013-10-18 04:17:00,
2013-10-18 00:22:00,66.6,54.5,31.03,South,172,13.0,15.0,65,0.00,,,0.00,meteohub,2013-10-18 04:22:00,
2013-10-18 00:27:00,66.6,54.5,31.03,SSW,196,9.0,14.0,65,0.00,,,0.00,meteohub,2013-10-18 04:27:00,
2013-10-18 00:32:00,66.7,54.7,31.03,South,174,10.0,14.0,65,0.00,,,0.00,meteohub,2013-10-18 04:32:00,
2013-10-18 00:37:00,66.7,55.0,31.03,South,187,9.0,14.0,66,0.00,,,0.00,meteohub,2013-10-18 04:37:00,
2013-10-18 00:42:00,66.7,55.0,31.03,SSW,193,9.0,13.0,66,0.00,,,0.00,meteohub,2013-10-18 04:42:00,
2013-10-18 00:48:00,66.7,55.4,31.03,SSE,158,10.0,13.0,67,0.00,,,0.00,meteohub,2013-10-18 04:48:00,
2013-10-18 00:53:00,66.9,55.6,31.03,SSE,151,9.0,12.0,67,0.00,,,0.00,meteohub,2013-10-18 04:53:00,
2013-10-18 00:58:00,66.9,55.6,31.03,South,177,8.0,12.0,67,0.00,,,0.00,meteohub,2013-10-18 04:58:00,
2013-10-18 01:03:00,66.9,55.6,31.03,South,181,9.0,12.0,67,0.00,,,0.00,meteohub,2013-10-18 05:03:00,
2013-10-18 01:09:00,66.9,55.6,31.03,South,170,8.0,11.0,67,0.00,,,0.00,meteohub,2013-10-18 05:09:00,
2013-10-18 01:14:00,66.9,55.9,31.03,SSE,149,9.0,12.0,68,0.00,,,0.00,meteohub,2013-10-18 05:14:00,
2013-10-18 01:19:00,66.9,55.9,31.03,South,172,11.0,12.0,68,0.00,,,0.00,meteohub,2013-10-18 05:19:00,
2013-10-18 01:25:00,66.9,55.9,31.03,South,169,9.0,11.0,68,0.00,,,0.00,meteohub,2013-10-18 05:25:00,
2013-10-18 01:30:00,66.9,55.9,31.03,South,170,8.0,11.0,68,0.00,,,0.00,meteohub,2013-10-18 05:30:00,
2013-10-18 01:35:00,66.9,56.5,31.03,South,171,5.0,11.0,69,0.00,,,0.00,meteohub,2013-10-18 05:35:00,
2013-10-18 01:40:00,66.9,55.9,31.03,South,175,8.0,11.0,68,0.00,,,0.00,meteohub,2013-10-18 05:40:00,
2013-10-18 01:45:00,66.9,56.5,31.03,SSE,150,10.0,11.0,69,0.00,,,0.00,meteohub,2013-10-18 05:45:00,
2013-10-18 01:51:00,66.9,56.5,31.03,South,187,8.0,11.0,69,0.00,,,0.00,meteohub,2013-10-18 05:51:00,
2013-10-18 01:56:00,66.9,56.8,31.03,SE,125,6.0,10.0,70,0.00,,,0.00,meteohub,2013-10-18 05:56:00,
2013-10-18 02:02:00,66.9,56.5,31.03,ESE,121,6.0,10.0,69,0.00,,,0.00,meteohub,2013-10-18 06:02:00,
2013-10-18 02:07:00,66.9,56.8,31.03,ESE,114,6.0,9.0,70,0.00,,,0.00,meteohub,2013-10-18 06:07:00,
2013-10-18 02:12:00,66.9,56.8,31.03,ESE,108,10.0,10.0,70,0.00,,,0.00,meteohub,2013-10-18 06:12:00,
2013-10-18 02:17:00,66.7,56.7,31.03,East,93,11.0,11.0,70,0.00,,,0.00,meteohub,2013-10-18 06:17:00,
2013-10-18 02:22:00,66.7,56.7,31.03,East,100,8.0,11.0,70,0.00,,,0.00,meteohub,2013-10-18 06:22:00,
2013-10-18 02:27:00,66.6,56.5,31.03,ESE,104,8.0,11.0,70,0.00,,,0.00,meteohub,2013-10-18 06:27:00,
2013-10-18 02:32:00,66.6,56.8,31.03,ESE,111,12.0,12.0,71,0.00,,,0.00,meteohub,2013-10-18 06:32:00,
2013-10-18 02:37:00,66.6,56.8,31.03,ESE,122,11.0,12.0,71,0.00,,,0.00,meteohub,2013-10-18 06:37:00,
2013-10-18 02:42:00,66.6,57.6,31.03,SE,133,13.0,13.0,73,0.00,,,0.00,meteohub,2013-10-18 06:42:00,
2013-10-18 02:47:00,66.7,58.6,31.03,SE,125,8.0,13.0,75,0.00,,,0.00,meteohub,2013-10-18 06:47:00,
2013-10-18 02:52:00,66.7,59.0,31.03,ESE,106,13.0,13.0,76,0.00,,,0.00,meteohub,2013-10-18 06:52:00,
2013-10-18 02:58:00,66.6,58.5,31.03,ESE,119,8.0,15.0,75,0.00,,,0.00,meteohub,2013-10-18 06:58:00,
2013-10-18 03:03:00,66.6,58.8,31.03,ESE,104,12.0,15.0,76,0.00,,,0.00,meteohub,2013-10-18 07:03:00,
2013-10-18 03:08:00,66.7,59.4,31.03,East,93,12.0,15.0,77,0.00,,,0.00,meteohub,2013-10-18 07:08:00,
2013-10-18 03:13:00,66.7,59.7,31.03,ESE,102,10.0,13.0,78,0.00,,,0.00,meteohub,2013-10-18 07:13:00,
2013-10-18 03:19:00,66.6,59.9,31.03,East,100,11.0,13.0,79,0.00,,,0.00,meteohub,2013-10-18 07:19:00,
2013-10-18 03:24:00,66.6,59.9,31.03,ESE,102,8.0,13.0,79,0.00,,,0.00,meteohub,2013-10-18 07:24:00,
2013-10-18 03:29:00,66.7,60.4,31.03,ESE,105,10.0,13.0,80,0.00,,,0.00,meteohub,2013-10-18 07:29:00,
2013-10-18 03:34:00,66.6,60.3,31.03,ESE,109,6.0,12.0,80,0.00,,,0.00,meteohub,2013-10-18 07:34:00,
2013-10-18 03:40:00,66.7,60.8,31.03,ESE,114,8.0,11.0,81,0.00,,,0.00,meteohub,2013-10-18 07:40:00,
2013-10-18 03:45:00,66.7,61.0,31.03,ESE,118,6.0,11.0,82,0.00,,,0.00,meteohub,2013-10-18 07:45:00,
2013-10-18 03:50:00,66.9,61.2,31.03,East,95,8.0,11.0,82,0.00,,,0.00,meteohub,2013-10-18 07:50:00,
2013-10-18 03:55:00,67.1,61.7,31.03,ESE,114,8.0,11.0,83,0.00,,,0.00,meteohub,2013-10-18 07:55:00,
2013-10-18 04:01:00,67.1,61.7,31.03,East,98,8.0,11.0,83,0.00,,,0.00,meteohub,2013-10-18 08:01:00,
2013-10-18 04:06:00,67.1,61.3,31.03,East,95,6.0,13.0,82,0.00,,,0.00,meteohub,2013-10-18 08:06:00,
2013-10-18 04:11:00,67.3,61.9,31.03,ESE,112,10.0,13.0,83,0.00,,,0.00,meteohub,2013-10-18 08:11:00,
2013-10-18 04:16:00,67.3,61.5,31.03,SE,136,10.0,13.0,82,0.00,,,0.00,meteohub,2013-10-18 08:16:00,
2013-10-18 04:21:00,67.3,61.5,31.03,East,100,10.0,13.0,82,0.00,,,0.00,meteohub,2013-10-18 08:21:00,
2013-10-18 04:27:00,67.3,61.2,31.03,East,101,8.0,13.0,81,0.00,,,0.00,meteohub,2013-10-18 08:27:00,
2013-10-18 04:32:00,67.3,61.2,31.03,ESE,113,8.0,13.0,81,0.00,,,0.00,meteohub,2013-10-18 08:32:00,
2013-10-18 04:37:00,67.5,61.3,31.03,ESE,102,10.0,11.0,81,0.00,,,0.00,meteohub,2013-10-18 08:37:00,
2013-10-18 04:42:00,67.5,61.3,31.03,ESE,116,11.0,11.0,81,0.00,,,0.00,meteohub,2013-10-18 08:42:00,
2013-10-18 04:47:00,67.5,60.8,31.03,ESE,115,10.0,13.0,79,0.00,,,0.00,meteohub,2013-10-18 08:47:00,
2013-10-18 04:52:00,67.6,60.6,31.03,ESE,112,8.0,13.0,78,0.00,,,0.00,meteohub,2013-10-18 08:52:00,
2013-10-18 04:58:00,67.6,60.6,31.03,SE,131,10.0,15.0,78,0.00,,,0.00,meteohub,2013-10-18 08:58:00,
2013-10-18 05:03:00,67.6,60.3,31.03,ESE,120,11.0,15.0,77,0.00,,,0.00,meteohub,2013-10-18 09:03:00,
2013-10-18 05:08:00,67.8,60.6,31.03,SSE,152,11.0,15.0,78,0.00,,,0.00,meteohub,2013-10-18 09:08:00,
2013-10-18 05:13:00,68.2,61.0,31.03,SSE,154,14.0,14.0,78,0.00,,,0.00,meteohub,2013-10-18 09:13:00,
2013-10-18 05:19:00,68.2,59.9,31.03,SE,139,11.0,13.0,75,0.00,,,0.00,meteohub,2013-10-18 09:19:00,
2013-10-18 05:24:00,68.2,60.3,31.03,SSE,155,12.0,19.0,76,0.00,,,0.00,meteohub,2013-10-18 09:24:00,
2013-10-18 05:29:00,68.0,60.1,31.03,SSE,151,11.0,19.0,76,0.00,,,0.00,meteohub,2013-10-18 09:29:00,
2013-10-18 05:35:00,68.2,61.0,31.03,South,178,14.0,15.0,78,0.00,,,0.00,meteohub,2013-10-18 09:35:00,
2013-10-18 05:40:00,68.0,60.8,31.03,SE,145,15.0,15.0,78,0.00,,,0.00,meteohub,2013-10-18 09:40:00,
2013-10-18 05:45:00,68.0,60.8,31.03,SE,145,11.0,16.0,78,0.00,,,0.00,meteohub,2013-10-18 09:45:00,
2013-10-18 05:50:00,68.0,60.4,31.03,SE,143,10.0,16.0,77,0.00,,,0.00,meteohub,2013-10-18 09:50:00,
2013-10-18 05:55:00,68.0,60.4,31.03,ESE,121,11.0,16.0,77,0.00,,,0.00,meteohub,2013-10-18 09:55:00,
2013-10-18 06:01:00,68.2,60.6,31.03,SE,138,15.0,16.0,77,0.00,,,0.00,meteohub,2013-10-18 10:01:00,
2013-10-18 06:06:00,68.2,61.0,31.03,SSE,151,13.0,16.0,78,0.00,,,0.00,meteohub,2013-10-18 10:06:00,
2013-10-18 06:11:00,68.2,61.3,31.03,SE,145,15.0,17.0,79,0.00,,,0.00,meteohub,2013-10-18 10:11:00,
2013-10-18 06:17:00,68.2,61.3,31.03,SE,144,14.0,17.0,79,0.00,,,0.00,meteohub,2013-10-18 10:17:00,
2013-10-18 06:22:00,68.2,61.7,31.03,SSE,156,19.0,19.0,80,0.00,,,0.00,meteohub,2013-10-18 10:22:00,
2013-10-18 06:27:00,68.4,61.9,31.03,SE,146,15.0,17.0,80,0.00,,,0.00,meteohub,2013-10-18 10:27:00,
2013-10-18 06:32:00,68.2,61.7,31.03,South,169,12.0,17.0,80,0.00,,,0.00,meteohub,2013-10-18 10:32:00,
2013-10-18 06:37:00,68.4,62.2,31.03,SSE,157,10.0,17.0,81,0.00,,,0.00,meteohub,2013-10-18 10:37:00,
2013-10-18 06:42:00,68.4,62.2,31.03,SSE,161,12.0,17.0,81,0.00,,,0.00,meteohub,2013-10-18 10:42:00,
2013-10-18 06:48:00,68.4,62.2,31.03,South,173,13.0,17.0,81,0.00,,,0.00,meteohub,2013-10-18 10:48:00,
2013-10-18 06:53:00,68.5,62.4,31.03,South,180,16.0,21.0,81,0.00,,,0.00,meteohub,2013-10-18 10:53:00,
2013-10-18 06:58:00,68.4,61.9,31.03,SSE,155,15.0,21.0,80,0.00,,,0.00,meteohub,2013-10-18 10:58:00,
2013-10-18 07:03:00,68.4,61.5,31.03,SSE,164,16.0,21.0,79,0.00,,,0.00,meteohub,2013-10-18 11:03:00,
2013-10-18 07:09:00,68.4,61.5,31.03,SSE,154,12.0,19.0,79,0.00,,,0.00,meteohub,2013-10-18 11:09:00,
2013-10-18 07:14:00,68.4,61.5,31.03,SSE,148,14.0,19.0,79,0.00,,,0.00,meteohub,2013-10-18 11:14:00,
2013-10-18 07:19:00,68.4,61.2,31.03,SSW,202,13.0,19.0,78,0.00,,,0.00,meteohub,2013-10-18 11:19:00,
2013-10-18 07:25:00,68.4,60.4,31.03,South,175,13.0,17.0,76,0.00,,,0.00,meteohub,2013-10-18 11:25:00,
2013-10-18 07:30:00,68.5,59.5,31.03,SSE,150,13.0,17.0,73,0.00,,,0.00,meteohub,2013-10-18 11:30:00,
2013-10-18 07:35:00,68.5,58.8,31.03,South,189,17.0,19.0,71,0.00,,,0.00,meteohub,2013-10-18 11:35:00,
2013-10-18 07:41:00,68.4,57.7,31.03,South,181,17.0,19.0,69,0.00,,,0.00,meteohub,2013-10-18 11:41:00,
2013-10-18 07:46:00,68.4,57.4,31.03,SSW,198,13.0,20.0,68,0.00,,,0.00,meteohub,2013-10-18 11:46:00,
2013-10-18 07:51:00,68.4,57.7,31.03,South,175,12.0,20.0,69,0.00,,,0.00,meteohub,2013-10-18 11:51:00,
2013-10-18 07:56:00,68.2,56.8,31.03,South,184,13.0,20.0,67,0.00,,,0.00,meteohub,2013-10-18 11:56:00,
2013-10-18 08:02:00,68.4,57.4,31.03,SSW,209,11.0,17.0,68,0.00,,,0.00,meteohub,2013-10-18 12:02:00,
2013-10-18 08:07:00,68.4,56.5,31.03,SSW,198,9.0,17.0,66,0.00,,,0.00,meteohub,2013-10-18 12:07:00,
2013-10-18 08:12:00,68.4,56.5,31.03,SSW,192,10.0,14.0,66,0.00,,,0.00,meteohub,2013-10-18 12:12:00,
2013-10-18 08:17:00,68.5,56.3,31.03,South,177,9.0,14.0,65,0.00,,,0.00,meteohub,2013-10-18 12:17:00,
2013-10-18 08:22:00,68.7,56.1,31.03,South,173,11.0,13.0,64,0.00,,,0.00,meteohub,2013-10-18 12:22:00,
2013-10-18 08:28:00,68.9,55.4,31.03,South,186,8.0,13.0,62,0.00,,,0.00,meteohub,2013-10-18 12:28:00,
2013-10-18 08:33:00,68.9,54.5,31.03,South,190,14.0,14.0,60,0.00,,,0.00,meteohub,2013-10-18 12:33:00,
2013-10-18 08:38:00,68.9,54.9,31.03,South,175,13.0,13.0,61,0.00,,,0.00,meteohub,2013-10-18 12:38:00,
2013-10-18 08:44:00,69.1,54.1,31.03,South,180,10.0,13.0,59,0.00,,,0.00,meteohub,2013-10-18 12:44:00,
2013-10-18 08:49:00,68.9,53.1,31.03,SSW,192,11.0,15.0,57,0.00,,,0.00,meteohub,2013-10-18 12:49:00,
2013-10-18 08:54:00,69.1,53.2,31.03,South,183,11.0,15.0,57,0.00,,,0.00,meteohub,2013-10-18 12:54:00,
2013-10-18 08:59:00,69.3,52.9,31.03,SSE,162,13.0,13.0,56,0.00,,,0.00,meteohub,2013-10-18 12:59:00,
2013-10-18 09:05:00,69.4,53.1,31.03,SSW,197,11.0,13.0,56,0.00,,,0.00,meteohub,2013-10-18 13:05:00,
2013-10-18 09:10:00,69.4,52.2,31.03,South,184,8.0,13.0,54,0.00,,,0.00,meteohub,2013-10-18 13:10:00,
2013-10-18 09:15:00,69.4,51.1,31.03,SSW,197,8.0,13.0,52,0.00,,,0.00,meteohub,2013-10-18 13:15:00,
2013-10-18 09:20:00,69.1,49.6,31.03,SSW,202,16.0,16.0,50,0.00,,,0.00,meteohub,2013-10-18 13:20:00,
2013-10-18 09:26:00,69.1,49.1,31.03,SSW,211,13.0,16.0,49,0.00,,,0.00,meteohub,2013-10-18 13:26:00,
2013-10-18 09:31:00,68.9,48.4,31.03,SW,219,15.0,16.0,48,0.00,,,0.00,meteohub,2013-10-18 13:31:00,
2013-10-18 09:36:00,69.1,48.6,31.03,South,185,9.0,17.0,48,0.00,,,0.00,meteohub,2013-10-18 13:36:00,
2013-10-18 09:42:00,68.9,46.8,31.03,SW,218,15.0,17.0,45,0.00,,,0.00,meteohub,2013-10-18 13:42:00,
2013-10-18 09:47:00,68.7,45.3,31.03,SSW,206,6.0,17.0,43,0.00,,,0.00,meteohub,2013-10-18 13:47:00,
2013-10-18 09:52:00,68.9,44.2,31.03,South,177,9.0,17.0,41,0.00,,,0.00,meteohub,2013-10-18 13:52:00,
2013-10-18 09:57:00,68.9,44.8,31.03,SW,221,6.0,17.0,42,0.00,,,0.00,meteohub,2013-10-18 13:57:00,
2013-10-18 10:02:00,69.3,44.6,31.03,SSW,208,8.0,17.0,41,0.00,,,0.00,meteohub,2013-10-18 14:02:00,
2013-10-18 10:07:00,69.6,43.5,31.03,SW,235,11.0,17.0,39,0.00,,,0.00,meteohub,2013-10-18 14:07:00,
2013-10-18 10:12:00,69.6,42.3,31.03,SW,225,7.0,17.0,37,0.00,,,0.00,meteohub,2013-10-18 14:12:00,
2013-10-18 10:17:00,70.0,43.9,31.03,SW,226,6.0,17.0,39,0.00,,,0.00,meteohub,2013-10-18 14:17:00,
2013-10-18 10:22:00,69.1,41.7,31.03,SW,216,5.0,15.0,37,0.00,,,0.00,meteohub,2013-10-18 14:22:00,
2013-10-18 10:27:00,69.3,41.2,31.03,WSW,250,8.0,15.0,36,0.00,,,0.00,meteohub,2013-10-18 14:27:00,
2013-10-18 10:32:00,69.6,39.2,31.03,SW,234,6.0,15.0,33,0.00,,,0.00,meteohub,2013-10-18 14:32:00,
2013-10-18 10:38:00,70.0,39.6,31.03,SSW,208,6.0,17.0,33,0.00,,,0.00,meteohub,2013-10-18 14:38:00,
2013-10-18 10:43:00,70.3,35.6,31.03,WSW,247,8.0,17.0,28,0.00,,,0.00,meteohub,2013-10-18 14:43:00,
2013-10-18 10:48:00,69.8,36.1,31.03,SSW,207,10.0,13.0,29,0.00,,,0.00,meteohub,2013-10-18 14:48:00,
2013-10-18 10:53:00,70.3,39.0,31.03,South,181,10.0,13.0,32,0.00,,,0.00,meteohub,2013-10-18 14:53:00,
2013-10-18 10:59:00,70.9,37.0,31.03,South,188,15.0,15.0,29,0.00,,,0.00,meteohub,2013-10-18 14:59:00,
2013-10-18 11:04:00,70.9,34.3,31.03,SSW,206,9.0,15.0,26,0.00,,,0.00,meteohub,2013-10-18 15:04:00,
2013-10-18 11:09:00,71.1,32.4,31.03,SSW,203,17.0,17.0,24,0.00,,,0.00,meteohub,2013-10-18 15:09:00,
2013-10-18 11:14:00,70.9,31.3,31.03,South,171,13.0,16.0,23,0.00,,,0.00,meteohub,2013-10-18 15:14:00,
2013-10-18 11:20:00,71.2,31.5,31.03,SSW,197,11.0,16.0,23,0.00,,,0.00,meteohub,2013-10-18 15:20:00,
2013-10-18 11:25:00,71.4,30.6,31.03,SSW,206,13.0,17.0,22,0.00,,,0.00,meteohub,2013-10-18 15:25:00,
2013-10-18 11:30:00,71.4,30.6,31.03,SSW,204,13.0,17.0,22,0.00,,,0.00,meteohub,2013-10-18 15:30:00,
2013-10-18 11:36:00,71.8,30.9,31.03,SW,220,9.0,16.0,22,0.00,,,0.00,meteohub,2013-10-18 15:36:00,
2013-10-18 11:41:00,71.8,23.2,31.03,SW,214,10.0,16.0,16,0.00,,,0.00,meteohub,2013-10-18 15:41:00,
2013-10-18 11:46:00,72.1,20.3,31.03,SSW,204,8.0,15.0,14,0.00,,,0.00,meteohub,2013-10-18 15:46:00,
2013-10-18 11:51:00,72.7,23.9,31.03,SSW,206,13.0,15.0,16,0.00,,,0.00,meteohub,2013-10-18 15:51:00,
2013-10-18 11:57:00,72.5,20.7,31.03,South,187,13.0,15.0,14,0.00,,,0.00,meteohub,2013-10-18 15:57:00,
2013-10-18 12:02:00,72.3,14.9,31.03,SSW,213,11.0,15.0,11,0.00,,,0.00,meteohub,2013-10-18 16:02:00,
2013-10-18 12:07:00,72.3,14.9,31.03,South,174,10.0,15.0,11,0.00,,,0.00,meteohub,2013-10-18 16:07:00,
2013-10-18 12:12:00,72.5,15.1,31.03,SSE,167,11.0,18.0,11,0.00,,,0.00,meteohub,2013-10-18 16:12:00,
2013-10-18 12:17:00,72.7,10.6,31.03,SSW,196,8.0,18.0,9,0.00,,,0.00,meteohub,2013-10-18 16:17:00,
2013-10-18 12:23:00,73.0,10.9,31.03,SSW,199,12.0,17.0,9,0.00,,,0.00,meteohub,2013-10-18 16:23:00,
2013-10-18 12:28:00,73.2,10.9,31.03,SSW,207,11.0,17.0,9,0.00,,,0.00,meteohub,2013-10-18 16:28:00,
2013-10-18 12:33:00,72.5,1.6,31.03,SW,218,13.0,17.0,6,0.00,,,0.00,meteohub,2013-10-18 16:33:00,
2013-10-18 12:39:00,72.3,10.2,31.03,SSW,197,7.0,16.0,9,0.00,,,0.00,meteohub,2013-10-18 16:39:00,
2013-10-18 12:44:00,73.2,2.1,31.03,SSW,207,11.0,16.0,6,0.00,,,0.00,meteohub,2013-10-18 16:44:00,
2013-10-18 12:49:00,74.1,2.7,31.03,SSW,210,13.0,16.0,6,0.00,,,0.00,meteohub,2013-10-18 16:49:00,
2013-10-18 12:54:00,74.1,2.7,31.03,South,184,15.0,15.0,6,0.00,,,0.00,meteohub,2013-10-18 16:54:00,
2013-10-18 13:00:00,73.8,2.5,31.03,SSW,204,9.0,15.0,6,0.00,,,0.00,meteohub,2013-10-18 17:00:00,
2013-10-18 13:05:00,73.0,1.9,31.03,SW,221,14.0,15.0,6,0.00,,,0.00,meteohub,2013-10-18 17:05:00,
2013-10-18 13:10:00,73.8,2.5,31.03,South,188,11.0,18.0,6,0.00,,,0.00,meteohub,2013-10-18 17:10:00,
2013-10-18 13:15:00,74.1,2.7,31.03,SSW,195,16.0,18.0,6,0.00,,,0.00,meteohub,2013-10-18 17:15:00,
2013-10-18 13:21:00,73.9,2.7,31.03,SSW,201,14.0,17.0,6,0.00,,,0.00,meteohub,2013-10-18 17:21:00,
2013-10-18 13:26:00,73.9,2.7,31.03,SSW,197,13.0,17.0,6,0.00,,,0.00,meteohub,2013-10-18 17:26:00,
2013-10-18 13:31:00,73.9,2.7,31.03,SSW,203,9.0,17.0,6,0.00,,,0.00,meteohub,2013-10-18 17:31:00,
2013-10-18 13:36:00,74.5,3.0,31.03,SSW,193,13.0,23.0,6,0.00,,,0.00,meteohub,2013-10-18 17:36:00,
2013-10-18 13:41:00,75.2,-0.4,31.03,SSW,196,17.0,23.0,5,0.00,,,0.00,meteohub,2013-10-18 17:41:00,
2013-10-18 13:46:00,75.2,-11.0,31.03,SSW,197,11.0,17.0,3,0.00,,,0.00,meteohub,2013-10-18 17:46:00,
2013-10-18 13:51:00,75.6,-10.7,31.03,ESE,116,4.0,17.0,3,0.00,,,0.00,meteohub,2013-10-18 17:51:00,
2013-10-18 13:57:00,74.7,3.2,31.03,SSW,202,10.0,17.0,6,0.00,,,0.00,meteohub,2013-10-18 17:57:00,
2013-10-18 14:02:00,75.0,-11.0,31.03,South,187,10.0,17.0,3,0.00,,,0.00,meteohub,2013-10-18 18:02:00,
2013-10-18 14:07:00,75.2,-11.0,31.03,SSW,213,8.0,17.0,3,0.00,,,0.00,meteohub,2013-10-18 18:07:00,
2013-10-18 14:12:00,74.7,-11.4,31.03,SSW,201,10.0,17.0,3,0.00,,,0.00,meteohub,2013-10-18 18:12:00,
2013-10-18 14:17:00,75.0,3.4,31.03,SSW,206,10.0,17.0,6,0.00,,,0.00,meteohub,2013-10-18 18:17:00,
2013-10-18 14:22:00,75.2,-11.0,31.03,South,186,13.0,15.0,3,0.00,,,0.00,meteohub,2013-10-18 18:22:00,
2013-10-18 14:27:00,74.5,3.0,31.03,South,172,11.0,15.0,6,0.00,,,0.00,meteohub,2013-10-18 18:27:00,
2013-10-18 14:33:00,73.8,2.5,31.03,SSW,199,13.0,15.0,6,0.00,,,0.00,meteohub,2013-10-18 18:33:00,
2013-10-18 14:38:00,74.1,-11.7,31.03,SSE,168,15.0,21.0,3,0.00,,,0.00,meteohub,2013-10-18 18:38:00,
2013-10-18 14:43:00,74.3,2.8,31.03,South,180,11.0,21.0,6,0.00,,,0.00,meteohub,2013-10-18 18:43:00,
2013-10-18 14:48:00,74.5,-11.4,31.03,SSW,196,11.0,21.0,3,0.00,,,0.00,meteohub,2013-10-18 18:48:00,
2013-10-18 14:53:00,74.5,-11.4,31.03,SSE,151,15.0,17.0,3,0.00,,,0.00,meteohub,2013-10-18 18:53:00,
2013-10-18 14:59:00,73.8,-11.9,31.03,SSW,202,13.0,17.0,3,0.00,,,0.00,meteohub,2013-10-18 18:59:00,
2013-10-18 15:04:00,73.8,-11.9,31.03,South,191,13.0,17.0,3,0.00,,,0.00,meteohub,2013-10-18 19:04:00,
2013-10-18 15:09:00,73.9,-11.7,31.03,SSW,196,12.0,19.0,3,0.00,,,0.00,meteohub,2013-10-18 19:09:00,
2013-10-18 15:14:00,73.9,2.7,31.03,SSE,155,11.0,17.0,6,0.00,,,0.00,meteohub,2013-10-18 19:14:00,
2013-10-18 15:20:00,73.4,2.1,31.03,SSW,203,10.0,17.0,6,0.00,,,0.00,meteohub,2013-10-18 19:20:00,
2013-10-18 15:25:00,73.4,-12.1,31.03,South,177,15.0,17.0,3,0.00,,,0.00,meteohub,2013-10-18 19:25:00,
2013-10-18 15:30:00,73.2,-6.5,31.03,South,179,11.0,17.0,4,0.00,,,0.00,meteohub,2013-10-18 19:30:00,
2013-10-18 15:35:00,72.7,1.8,31.03,South,190,15.0,17.0,6,0.00,,,0.00,meteohub,2013-10-18 19:35:00,
2013-10-18 15:41:00,72.7,-6.9,31.03,SSE,167,14.0,17.0,4,0.00,,,0.00,meteohub,2013-10-18 19:41:00,
2013-10-18 15:46:00,72.1,1.2,31.03,SSE,155,13.0,17.0,6,0.00,,,0.00,meteohub,2013-10-18 19:46:00,
2013-10-18 15:51:00,72.1,1.2,31.03,SSW,194,11.0,17.0,6,0.00,,,0.00,meteohub,2013-10-18 19:51:00,
2013-10-18 15:56:00,72.1,-7.2,31.03,SSW,204,15.0,17.0,4,0.00,,,0.00,meteohub,2013-10-18 19:56:00,
2013-10-18 16:02:00,72.0,-7.2,31.03,South,175,13.0,17.0,4,0.00,,,0.00,meteohub,2013-10-18 20:02:00,
2013-10-18 16:07:00,71.8,1.0,31.03,South,186,11.0,17.0,6,0.00,,,0.00,meteohub,2013-10-18 20:07:00,
2013-10-18 16:13:00,72.1,1.2,31.03,SSW,201,8.0,17.0,6,0.00,,,0.00,meteohub,2013-10-18 20:13:00,
2013-10-18 16:18:00,71.6,30.7,31.03,South,174,14.0,17.0,22,0.00,,,0.00,meteohub,2013-10-18 20:18:00,
2013-10-18 16:23:00,70.5,33.1,31.03,South,191,13.0,17.0,25,0.00,,,0.00,meteohub,2013-10-18 20:23:00,
2013-10-18 16:28:00,70.0,36.3,31.03,SSE,166,13.0,17.0,29,0.00,,,0.00,meteohub,2013-10-18 20:28:00,
2013-10-18 16:34:00,69.8,38.7,31.03,South,186,11.0,17.0,32,0.00,,,0.00,meteohub,2013-10-18 20:34:00,
2013-10-18 16:39:00,69.4,38.3,31.03,South,189,12.0,17.0,32,0.00,,,0.00,meteohub,2013-10-18 20:39:00,
2013-10-18 16:44:00,68.5,38.3,31.03,South,188,17.0,17.0,33,0.00,,,0.00,meteohub,2013-10-18 20:44:00,
2013-10-18 16:49:00,68.2,37.9,31.03,SSE,168,17.0,17.0,33,0.00,,,0.00,meteohub,2013-10-18 20:49:00,
2013-10-18 16:54:00,68.4,39.6,31.03,South,174,13.0,20.0,35,0.00,,,0.00,meteohub,2013-10-18 20:54:00,
2013-10-18 17:00:00,68.2,39.6,31.03,SSW,193,13.0,20.0,35,0.00,,,0.00,meteohub,2013-10-18 21:00:00,
2013-10-18 17:05:00,67.8,39.2,31.03,South,173,17.0,20.0,35,0.00,,,0.00,meteohub,2013-10-18 21:05:00,
2013-10-18 17:10:00,67.6,38.3,31.03,South,188,19.0,20.0,34,0.00,,,0.00,meteohub,2013-10-18 21:10:00,
2013-10-18 17:15:00,67.5,38.8,31.03,South,181,16.0,20.0,35,0.00,,,0.00,meteohub,2013-10-18 21:15:00,
2013-10-18 17:21:00,67.5,39.6,31.03,South,178,13.0,20.0,36,0.00,,,0.00,meteohub,2013-10-18 21:21:00,
2013-10-18 17:26:00,67.3,38.7,31.03,South,191,11.0,20.0,35,0.00,,,0.00,meteohub,2013-10-18 21:26:00,
2013-10-18 17:31:00,67.1,38.5,31.03,South,181,16.0,20.0,35,0.00,,,0.00,meteohub,2013-10-18 21:31:00,
2013-10-18 17:36:00,66.9,38.3,31.03,SSW,198,15.0,17.0,35,0.00,,,0.00,meteohub,2013-10-18 21:36:00,
2013-10-18 17:42:00,66.7,39.0,31.03,SSW,197,10.0,17.0,36,0.00,,,0.00,meteohub,2013-10-18 21:42:00,
2013-10-18 17:47:00,66.4,38.7,31.03,South,187,11.0,17.0,36,0.00,,,0.00,meteohub,2013-10-18 21:47:00,
2013-10-18 17:52:00,66.2,39.2,31.03,South,182,11.0,17.0,37,0.00,,,0.00,meteohub,2013-10-18 21:52:00,
2013-10-18 17:57:00,65.8,39.6,31.03,South,189,8.0,15.0,38,0.00,,,0.00,meteohub,2013-10-18 21:57:00,
2013-10-18 18:02:00,65.7,39.4,31.03,SSW,198,11.0,15.0,38,0.00,,,0.00,meteohub,2013-10-18 22:02:00,
2013-10-18 18:07:00,65.5,39.2,31.03,SSW,199,8.0,15.0,38,0.00,,,0.00,meteohub,2013-10-18 22:07:00,
2013-10-18 18:13:00,65.5,39.9,31.03,SSW,196,8.0,15.0,39,0.00,,,0.00,meteohub,2013-10-18 22:13:00,
2013-10-18 18:18:00,65.1,39.6,31.03,South,190,5.0,15.0,39,0.00,,,0.00,meteohub,2013-10-18 22:18:00,
2013-10-18 18:23:00,65.1,40.3,31.03,SW,220,6.0,15.0,40,0.00,,,0.00,meteohub,2013-10-18 22:23:00,
2013-10-18 18:28:00,64.9,40.1,31.03,SSW,201,8.0,11.0,40,0.00,,,0.00,meteohub,2013-10-18 22:28:00,
2013-10-18 18:34:00,64.8,40.5,31.03,SSW,192,9.0,11.0,41,0.00,,,0.00,meteohub,2013-10-18 22:34:00,
2013-10-18 18:39:00,64.6,40.3,31.03,South,187,8.0,11.0,41,0.00,,,0.00,meteohub,2013-10-18 22:39:00,
2013-10-18 18:44:00,64.4,39.6,31.03,SSW,202,5.0,11.0,40,0.00,,,0.00,meteohub,2013-10-18 22:44:00,
2013-10-18 18:49:00,64.2,40.1,31.03,South,187,6.0,9.0,41,0.00,,,0.00,meteohub,2013-10-18 22:49:00,
2013-10-18 18:55:00,64.2,40.1,31.03,South,181,5.0,8.0,41,0.00,,,0.00,meteohub,2013-10-18 22:55:00,
2013-10-18 19:00:00,64.0,39.9,31.03,South,185,6.0,8.0,41,0.00,,,0.00,meteohub,2013-10-18 23:00:00,
2013-10-18 19:05:00,63.9,39.7,31.03,SSW,196,5.0,8.0,41,0.00,,,0.00,meteohub,2013-10-18 23:05:00,
2013-10-18 19:10:00,63.7,39.6,31.03,South,190,4.0,8.0,41,0.00,,,0.00,meteohub,2013-10-18 23:10:00,
2013-10-18 19:16:00,63.5,39.4,31.03,SSW,194,4.0,6.0,41,0.00,,,0.00,meteohub,2013-10-18 23:16:00,
2013-10-18 19:21:00,63.3,39.2,31.03,South,187,4.0,6.0,41,0.00,,,0.00,meteohub,2013-10-18 23:21:00,
2013-10-18 19:26:00,63.1,39.0,31.03,SSW,203,3.0,6.0,41,0.00,,,0.00,meteohub,2013-10-18 23:26:00,
2013-10-18 19:31:00,63.1,39.0,31.03,SSW,211,3.0,6.0,41,0.00,,,0.00,meteohub,2013-10-18 23:31:00,
2013-10-18 19:37:00,62.6,37.9,31.03,SW,218,4.0,5.0,40,0.00,,,0.00,meteohub,2013-10-18 23:37:00,
2013-10-18 19:42:00,62.2,37.6,31.03,SW,220,4.0,5.0,40,0.00,,,0.00,meteohub,2013-10-18 23:42:00,
2013-10-18 19:47:00,62.1,37.4,31.03,SW,227,4.0,6.0,40,0.00,,,0.00,meteohub,2013-10-18 23:47:00,
2013-10-18 19:52:00,62.1,38.1,31.03,SW,221,4.0,6.0,41,0.00,,,0.00,meteohub,2013-10-18 23:52:00,
2013-10-18 19:57:00,61.7,37.8,31.03,SSW,213,4.0,6.0,41,0.00,,,0.00,meteohub,2013-10-18 23:57:00,
2013-10-18 20:02:00,61.5,37.6,31.03,SSW,195,8.0,8.0,41,0.00,,,0.00,meteohub,2013-10-19 00:02:00,
2013-10-18 20:07:00,61.2,36.0,31.03,SSW,209,5.0,8.0,39,0.00,,,0.00,meteohub,2013-10-19 00:07:00,
2013-10-18 20:12:00,61.0,35.2,31.03,SW,214,5.0,8.0,38,0.00,,,0.00,meteohub,2013-10-19 00:12:00,
2013-10-18 20:18:00,60.6,33.4,31.03,SW,217,4.0,8.0,36,0.00,,,0.00,meteohub,2013-10-19 00:18:00,
2013-10-18 20:23:00,60.6,33.4,31.03,SW,229,8.0,8.0,36,0.00,,,0.00,meteohub,2013-10-19 00:23:00,
2013-10-18 20:28:00,60.6,32.2,31.03,SW,214,8.0,8.0,34,0.00,,,0.00,meteohub,2013-10-19 00:28:00,
2013-10-18 20:33:00,60.4,29.7,31.03,SW,221,4.0,8.0,31,0.00,,,0.00,meteohub,2013-10-19 00:33:00,
2013-10-18 20:39:00,60.4,28.0,31.03,SSW,192,8.0,8.0,29,0.00,,,0.00,meteohub,2013-10-19 00:39:00,
2013-10-18 20:44:00,60.3,27.9,31.03,SW,229,4.0,8.0,29,0.00,,,0.00,meteohub,2013-10-19 00:44:00,
2013-10-18 20:49:00,60.3,27.0,31.03,SW,236,8.0,8.0,28,0.00,,,0.00,meteohub,2013-10-19 00:49:00,
2013-10-18 20:54:00,60.1,26.1,31.03,SW,217,6.0,8.0,27,0.00,,,0.00,meteohub,2013-10-19 00:54:00,
2013-10-18 21:00:00,59.9,26.8,31.03,SSW,213,5.0,8.0,28,0.00,,,0.00,meteohub,2013-10-19 01:00:00,
2013-10-18 21:05:00,59.7,27.3,31.03,SSW,204,6.0,8.0,29,0.00,,,0.00,meteohub,2013-10-19 01:05:00,
2013-10-18 21:10:00,59.7,26.6,31.03,SSW,206,3.0,8.0,28,0.00,,,0.00,meteohub,2013-10-19 01:10:00,
2013-10-18 21:15:00,59.4,26.2,31.03,SSW,207,6.0,7.0,28,0.00,,,0.00,meteohub,2013-10-19 01:15:00,
2013-10-18 21:20:00,59.4,26.2,31.03,SW,221,6.0,7.0,28,0.00,,,0.00,meteohub,2013-10-19 01:20:00,
2013-10-18 21:26:00,59.4,26.2,31.03,SW,218,4.0,8.0,28,0.00,,,0.00,meteohub,2013-10-19 01:26:00,
2013-10-18 21:31:00,59.2,25.2,31.03,SW,221,4.0,8.0,27,0.00,,,0.00,meteohub,2013-10-19 01:31:00,
2013-10-18 21:36:00,59.2,25.2,31.03,SW,223,3.0,8.0,27,0.00,,,0.00,meteohub,2013-10-19 01:36:00,
2013-10-18 21:42:00,59.2,25.2,31.03,SW,224,4.0,8.0,27,0.00,,,0.00,meteohub,2013-10-19 01:42:00,
2013-10-18 21:47:00,59.2,25.2,31.03,SW,218,3.0,6.0,27,0.00,,,0.00,meteohub,2013-10-19 01:47:00,
2013-10-18 21:52:00,59.0,24.1,31.03,SW,224,5.0,6.0,26,0.00,,,0.00,meteohub,2013-10-19 01:52:00,
2013-10-18 21:57:00,58.8,24.1,31.03,SW,224,5.0,5.0,26,0.00,,,0.00,meteohub,2013-10-19 01:57:00,
2013-10-18 22:02:00,58.5,23.7,31.03,SW,216,5.0,5.0,26,0.00,,,0.00,meteohub,2013-10-19 02:02:00,
2013-10-18 22:07:00,58.5,24.6,31.03,SW,231,4.0,6.0,27,0.00,,,0.00,meteohub,2013-10-19 02:07:00,
2013-10-18 22:12:00,58.5,24.6,31.03,SSW,211,4.0,6.0,27,0.00,,,0.00,meteohub,2013-10-19 02:12:00,
2013-10-18 22:17:00,58.3,24.4,31.03,SSW,208,4.0,6.0,27,0.00,,,0.00,meteohub,2013-10-19 02:17:00,
2013-10-18 22:22:00,58.1,24.3,31.03,SSW,197,3.0,6.0,27,0.00,,,0.00,meteohub,2013-10-19 02:22:00,
2013-10-18 22:28:00,58.1,24.3,31.03,South,189,4.0,6.0,27,0.00,,,0.00,meteohub,2013-10-19 02:28:00,
2013-10-18 22:33:00,58.3,23.5,31.03,SSW,197,4.0,6.0,26,0.00,,,0.00,meteohub,2013-10-19 02:33:00,
2013-10-18 22:38:00,58.3,25.3,31.03,SSW,213,5.0,6.0,28,0.00,,,0.00,meteohub,2013-10-19 02:38:00,
2013-10-18 22:44:00,58.1,25.2,31.03,SSW,208,4.0,5.0,28,0.00,,,0.00,meteohub,2013-10-19 02:44:00,
2013-10-18 22:49:00,57.9,25.9,31.03,SSW,199,4.0,5.0,29,0.00,,,0.00,meteohub,2013-10-19 02:49:00,
2013-10-18 22:54:00,58.1,26.1,31.03,SSW,197,4.0,5.0,29,0.00,,,0.00,meteohub,2013-10-19 02:54:00,
2013-10-18 22:59:00,58.1,26.1,31.03,SSW,203,4.0,5.0,29,0.00,,,0.00,meteohub,2013-10-19 02:59:00,
2013-10-18 23:05:00,58.1,26.8,31.03,SSW,193,5.0,5.0,30,0.00,,,0.00,meteohub,2013-10-19 03:05:00,
2013-10-18 23:10:00,57.9,27.5,31.03,SSW,193,6.0,6.0,31,0.00,,,0.00,meteohub,2013-10-19 03:10:00,
2013-10-18 23:15:00,57.7,28.0,31.03,SSW,202,5.0,8.0,32,0.00,,,0.00,meteohub,2013-10-19 03:15:00,
2013-10-18 23:20:00,57.7,30.2,31.03,SSW,207,4.0,8.0,35,0.00,,,0.00,meteohub,2013-10-19 03:20:00,
2013-10-18 23:26:00,57.7,30.2,31.03,SSW,195,6.0,8.0,35,0.00,,,0.00,meteohub,2013-10-19 03:26:00,
2013-10-18 23:31:00,57.9,31.1,31.03,South,187,6.0,8.0,36,0.00,,,0.00,meteohub,2013-10-19 03:31:00,
2013-10-18 23:36:00,57.9,31.8,31.03,SSW,206,6.0,8.0,37,0.00,,,0.00,meteohub,2013-10-19 03:36:00,
2013-10-18 23:42:00,57.9,32.5,31.03,South,190,6.0,8.0,38,0.00,,,0.00,meteohub,2013-10-19 03:42:00,
2013-10-18 23:47:00,58.3,35.2,31.03,South,189,9.0,9.0,42,0.00,,,0.00,meteohub,2013-10-19 03:47:00,
2013-10-18 23:52:00,58.6,36.1,31.03,SSW,201,9.0,9.0,43,0.00,,,0.00,meteohub,2013-10-19 03:52:00,
2013-10-18 23:57:00,58.8,35.8,31.03,SSW,201,9.0,13.0,42,0.00,,,0.00,meteohub,2013-10-19 03:57:00,